User: anonymous   Login
Location: *
(52.2090°N, 4.1550°W)
Time: 22:10:50
(UTC+00:00)
Language:

SPOT 5 - Orbit

View from above orbital plane
View from above orbital plane
View from above satellite
View from above satellite

Ground track
Ground track

The orbit data is extracted from the following two-line orbital elements,

1 27421U 02021A   19261.18208422  .00000019  00000-0  15942-4 0  9992
2 27421  98.3053 330.4163 0135069 325.4065  33.8405 14.52001652905097
Epoch (UTC): 18 September 2019 04:22:12
Eccentricity: 0.0135069
inclination: 98.3053°
perigee height: 623 km
apogee height: 815 km
right ascension of ascending node: 330.4163°
argument of perigee: 325.4065°
revolutions per day: 14.52001652
mean anomaly at epoch: 33.8405°
orbit number at epoch: 90509

The dashed part of the orbit path shows where the satellite is in the earth's shadow,  

DLR